Weather History for Debrecen, Hungary

Change the Weather History Date:

Thursday, June 6, 2013

  Actual Average Record
Temperature  
Mean Temperature 63 °F -  
Max Temperature 70 °F 77 °F - ()
Min Temperature 56 °F 56 °F - ()
Degree Days  
Heating Degree Days 2    
Growing Degree Days 13 (Base 50)    
Moisture  
Dew Point 58 °F    
Average Humidity 83    
Maximum Humidity 94    
Minimum Humidity 67    
Precipitation  
Precipitation 0.01 in 0.10 in - ()
Sea Level Pressure  
Sea Level Pressure 30.04 in    
Wind  
Wind Speed 3 mph ()    
Max Wind Speed 8 mph    
Max Gust Speed -    
Visibility 5.8 miles    
Events Rain    
T = Trace of Precipitation, MM = Missing Value Source: Averaged Metar Reports

Daily Weather History Graph

Daily Weather History Graph

Search for Another Location

Airport:

Trip Planner

Search our weather history database for the weather conditions in past years. The results will help you decide how hot, cold, wet, or windy it might be!

Date:

Astronomy

Jun. 06, 2013 Rise Set
Actual Time 4:37 AM CEST 8:27 PM CEST
Civil Twilight 3:58 AM CEST 9:06 PM CEST
Nautical Twilight 3:03 AM CEST 10:01 PM CEST
Astronomical Twilight 1:44 AM CEST 11:21 PM CEST
Moon 3:15 AM CEST (6/6) 6:25 PM CEST (6/6)
Length of Visible Light 17h 08m
Length of Day
15h 49m
Waning Crescent, 5% of the Moon is Illuminated
Jun 6
Waning Crescent
Jun 8
New
Jun 16
First Quarter
Jun 23
Full
Jun 30
Last Quarter

Hourly Weather History & Observations

Time (CEST) Temp. Dew Point Humidity Pressure Visibility Wind Dir Wind Speed Gust Speed Precip Events Conditions
2:00 AM 57 °F 54 °F 88% 30.03 in - Calm Calm - -  
3:15 AM 57.2 °F 55.4 °F 94% 30.01 in - North 2.3 mph - N/A   Unknown
4:45 AM 57.2 °F 55.4 °F 94% 30.04 in 3.7 mi Calm Calm - N/A Rain Light Rain
5:15 AM 57.2 °F 55.4 °F 94% 30.04 in 3.7 mi Calm Calm - N/A Rain Light Rain
5:45 AM 57.2 °F 55.4 °F 94% 30.04 in 3.7 mi NNE 1.2 mph - N/A Rain Light Rain
6:15 AM 59.0 °F 57.2 °F 94% 30.04 in 3.7 mi NNE 3.5 mph - N/A Rain Light Rain
6:45 AM 59.0 °F 55.4 °F 88% 30.04 in 5.0 mi North 1.2 mph - N/A Rain Light Rain
7:00 AM - - N/A% - 6.2 mi Variable 3.5 mph - N/A   Mostly Cloudy
7:15 AM 59.0 °F 55.4 °F 88% 30.04 in 4.3 mi North 2.3 mph - N/A Rain Light Rain
7:45 AM 59.0 °F 55.4 °F 88% 30.04 in 4.3 mi North 2.3 mph - N/A Rain Light Rain
8:00 AM 59 °F 56 °F 87% 30.04 in 4 mi North 2.2 mph - - Rain Light Rain
8:15 AM 60.8 °F 57.2 °F 88% 30.04 in 5.0 mi WNW 2.3 mph - N/A Rain Light Rain
8:23 AM 60.8 °F 57.2 °F 88% 30.04 in 4.3 mi NNW 2.3 mph - N/A   Overcast
8:45 AM 60.8 °F 57.2 °F 88% 30.06 in 5.0 mi NNW 3.5 mph - N/A   Mostly Cloudy
9:15 AM 60.8 °F 57.2 °F 88% 30.06 in 5.0 mi NNW 2.3 mph - N/A   Mostly Cloudy
9:45 AM 62.6 °F 57.2 °F 82% 30.06 in 4.3 mi NNW 3.5 mph - N/A   Mostly Cloudy
10:00 AM - - N/A% - 6.2 mi Variable 3.5 mph - N/A   Scattered Clouds
10:15 AM 62.6 °F 59.0 °F 88% 30.06 in 4.3 mi West 4.6 mph - N/A   Mostly Cloudy
10:45 AM 62.6 °F 59.0 °F 88% 30.06 in 6.2 mi West 3.5 mph - N/A Rain Light Rain Showers
11:15 AM 62.6 °F 57.2 °F 82% 30.06 in 5.0 mi WSW 3.5 mph - N/A   Mostly Cloudy
11:45 AM 62.6 °F 59.0 °F 88% 30.06 in 4.3 mi WSW 4.6 mph - N/A   Mostly Cloudy
12:15 PM 62.6 °F 59.0 °F 88% 30.06 in 4.3 mi SSW 6.9 mph - N/A   Mostly Cloudy
12:45 PM 62.6 °F 59.0 °F 88% 30.06 in 4.3 mi SW 4.6 mph - N/A   Mostly Cloudy
1:00 PM - - N/A% - 6.2 mi Variable 3.5 mph - N/A   Scattered Clouds
1:15 PM 64.4 °F 60.8 °F 88% 30.06 in 6.2 mi WSW 4.6 mph - N/A   Mostly Cloudy
1:45 PM 66.2 °F 59.0 °F 78% 30.06 in 6.2 mi WSW 6.9 mph - N/A   Mostly Cloudy
2:00 PM 65 °F 59 °F 76% 30.05 in 9 mi WSW 6.7 mph - -   Partly Cloudy
2:15 PM 66.2 °F 59.0 °F 78% 30.06 in 6.2 mi West 4.6 mph - N/A Rain Light Rain Showers
2:45 PM 64.4 °F 60.8 °F 88% 30.06 in 6.2 mi South 8.1 mph - N/A Rain Light Rain Showers
3:15 PM 66.2 °F 60.8 °F 83% 30.06 in 6.2 mi South 4.6 mph - N/A   Mostly Cloudy
3:45 PM 68.0 °F 60.8 °F 78% 30.04 in 6.2 mi SSW 4.6 mph - N/A   Mostly Cloudy
4:15 PM 68.0 °F 59.0 °F 73% 30.04 in 6.2 mi SSW 3.5 mph - N/A   Scattered Clouds
4:45 PM 69.8 °F 59.0 °F 68% 30.04 in 6.2 mi WSW 2.3 mph - N/A   Mostly Cloudy
5:15 PM 69.8 °F 59.0 °F 68% 30.04 in 6.2 mi SW 4.6 mph - N/A   Scattered Clouds
5:45 PM 68.0 °F 59.0 °F 73% 30.04 in 6.2 mi SSE 6.9 mph - N/A   Scattered Clouds
6:15 PM 68.0 °F 59.0 °F 73% 30.04 in 6.2 mi South 4.6 mph - N/A   Scattered Clouds
6:45 PM 68.0 °F 59.0 °F 73% 30.04 in 6.2 mi SSW 2.3 mph - N/A   Scattered Clouds
7:15 PM 68.0 °F 59.0 °F 73% 30.04 in 6.2 mi South 2.3 mph - N/A   Mostly Cloudy
7:45 PM 66.2 °F 59.0 °F 78% 30.01 in 6.2 mi WSW 3.5 mph - N/A   Scattered Clouds
8:00 PM 67 °F 58 °F 67% 30.01 in 19 mi WSW 2.2 mph - -   Partly Cloudy
8:15 PM 66.2 °F 59.0 °F 78% 30.01 in 6.2 mi WSW 2.3 mph - N/A   Scattered Clouds
8:45 PM 64.4 °F 59.0 °F 83% 30.04 in 6.2 mi Calm Calm - N/A   Scattered Clouds
9:00 PM - - N/A% - - North - - N/A   Unknown